CAPE
0 0 0 1 28 13 0 1 14 0 0 0 0 0 0 0 0 0 0 0 0 0 0 0 0 0 0 0 0 0 0 0 0 0 0 0 0 0 0 0 0 0 0 0
0 0 0 0 0 1 0 0 0 0 1 0 0 0 0 0 0 0 0 0 0 0 0 0 0 0 0 0 0 0 0 0 0 0 0 0 0 0 0 0 0 0 0 0
3 0 0 3 0 0 0 0 0 0 9 1 3 0 0 0 0 0 0 0 0 0 0 0 0 0 0 0 0 0 0 0 0 0 0 0 0 0 0 0 0 0 0 0
38 7 2 0 0 0 26 28 51 82 8 19 0 0 0 0 0 0 0 0 0 0 0 0 0 0 0 0 0 0 0 0 0 0 0 0 0 0 0 0 0 0 0 0
18 4 0 0 0 4 25 49 64 1 28 66 4 0 0 0 0 0 0 0 0 0 0 0 0 0 0 0 0 0 0 0 0 0 0 0 0 0 0 0 0 0 0 0
2 39 14 0 0 0 0 0 0 2 42 22 0 0 0 0 0 0 0 0 0 0 0 0 0 0 0 0 0 0 0 0 0 0 0 0 0 0 0 0 0 0 0 0
3 19 0 0 3 1 5 0 0 1 7 8 0 0 0 0 0 0 0 0 0 0 0 0 0 0 0 0 0 0 0 0 0 0 0 0 0 0 0 0 0 0 0 0
0 2 0 12 1 15 10 9 7 0 0 0 0 0 0 0 13 2 0 0 0 0 0 0 0 0 0 0 0 0 0 0 0 0 0 0 0 0 0 0 0 0 0 0
0 0 0 0 0 0 0 2 0 0 0 0 0 0 0 0 13 0 0 0 0 0 0 0 0 0 0 0 0 0 0 0 0 0 0 0 0 0 0 0 0 0 0 0
3 0 0 0 0 0 0 0 0 0 0 0 0 0 0 0 19 1 0 0 0 0 0 0 0 0 0 0 0 0 0 0 0 0 0 0 0 0 0 0 0 0 0 0
0 0 0 0 0 0 0 0 0 0 0 0 0 0 0 0 10 6 3 2 0 0 0 0 0 0 0 0 0 0 0 0 0 0 0 0 0 0 0 0 0 0 0 0
0 0 0 0 0 0 0 0 0 0 0 0 0 0 0 0 20 6 18 16 0 0 0 0 0 0 0 0 0 0 0 0 0 0 0 0 0 0 0 0 0 0 0 0
0 0 0 0 0 0 0 0 0 0 0 0 0 0 0 0 4 41 56 36 0 0 0 0 0 0 0 0 0 0 0 0 0 0 0 0 0 0 0 0 0 0 0 0
0 0 0 0 0 0 0 0 0 0 0 0 0 0 0 0 3 72 35 33 0 0 0 0 0 0 0 0 0 0 0 0 0 0 0 0 0 0 0 0 0 0 0 0
0 0 0 0 0 0 0 0 0 0 0 0 0 0 0 0 0 0 36 51 0 0 0 0 0 0 0 0 0 0 0 0 0 0 0 0 0 0 0 0 0 0 0 0
0 0 0 0 0 0 0 0 0 0 0 0 0 0 0 0 0 0 0 0 0 0 0 0 0 0 0 0 0 0 0 0 0 0 0 0 0 0 0 0 0 1 0 0
0 0 0 0 0 0 0 0 0 0 0 0 0 0 0 0 0 0 0 0 0 0 0 0 0 0 0 0 0 0 0 0 0 0 0 0 0 0 0 0 0 0 2 0
0 0 0 0 0 0 0 0 0 0 0 0 0 0 0 0 0 0 0 0 0 0 0 0 0 0 0 0 0 0 0 0 0 0 0 0 0 0 0 0 0 2 3 0
0 0 0 0 0 0 0 0 0 0 0 0 1 1 0 0 0 0 0 0 0 0 0 0 0 0 0 0 0 0 0 0 0 0 0 0 0 0 0 0 1 1 0 0
0 0 2 7 0 0 0 0 0 0 0 0 0 0 0 0 0 0 0 0 0 0 0 0 0 0 0 0 0 0 0 0 0 0 0 0 0 0 0 0 0 1 0 0
2 14 1 0 0 0 0 2 3 1 2 2 0 0 0 0 0 0 0 0 0 0 0 0 0 0 0 0 0 0 0 0 0 0 0 0 0 0 0 0 0 6 0 0
3 2 0 0 0 0 2 9 6 9 6 3 2 2 0 0 0 0 0 0 0 0 0 0 0 0 0 0 0 0 0 0 0 0 0 0 0 0 0 1 4 6 3 0
5 0 0 0 6 8 6 9 4 4 6 5 0 0 0 0 0 0 0 1 0 0 0 0 0 0 13 0 0 0 0 0 0 2 0 1 1 0 0 1 3 9 13 0
0 0 1 2 8 6 2 1 1 5 7 3 3 4 1 1 2 5 7 5 3 0 0 0 1 18 0 0 0 0 0 0 0 0 7 7 0 1 0 0 0 2 0 1
1 2 10 1 1 1 0 0 0 0 0 0 0 2 3 2 0 1 1 1 0 0 0 11 21 25 0 0 0 0 0 0 0 2 0 0 0 0 0 0 2 0 5 2
3 5 4 4 5 1 0 1 0 0 0 0 1 2 2 1 1 0 0 0 0 0 0 0 0 0 0 0 0 0 0 0 0 0 0 0 0 0 0 0 3 6 1 2
5 11 8 3 2 3 3 4 1 0 0 0 0 0 0 0 0 0 0 0 0 0 0 0 0 0 0 3 0 0 0 0 0 1 0 0 0 0 0 0 0 17 0 0
CIN
-0 -0 -0 -0 -0 -1 -0 -0 -0 -0 -0 -0 -0 -0 -0 -0 -0 -0 -0 -0 -0 -0 -0 -0 -0 -0 -0 -0 -0 -0 -0 -0 -0 -0 -0 -0 -0 -0 -0 -0 -0 -0 -0 -0
-0 -0 -0 -0 -0 -1 -0 -0 -0 -0 -0 -0 -0 -0 -0 -0 -0 -0 -0 -0 -0 -0 -0 -0 -0 -0 -0 -0 -0 -0 -0 -0 -0 -0 -0 -0 -0 -0 -0 -0 -0 -0 -0 -0
-1 -0 -0 -1 -0 -0 -0 -0 -0 -0 -17 -0 -0 -0 -0 -0 -0 -0 -0 -0 -0 -0 -0 -0 -0 -0 -0 -0 -0 -0 -0 -0 -0 -0 -0 -0 -0 -0 -0 -0 -0 -0 -0 -0
-2 -18 -5 -0 -0 -0 -13 -4 -34 -8 -26 -0 -0 -0 -0 -0 -0 -0 -0 -0 -0 -0 -0 -0 -0 -0 -0 -0 -0 -0 -0 -0 -0 -0 -0 -0 -0 -0 -0 -0 -0 -0 -0 -0
-4 -10 -0 -0 -0 -9 -59 -51 -55 -0 -0 -1 -9 -0 -0 -0 -0 -0 -0 -0 -0 -0 -0 -0 -0 -0 -0 -0 -0 -0 -0 -0 -0 -0 -0 -0 -0 -0 -0 -0 -0 -0 -0 -0
-39 -1 -6 -0 -0 -0 -0 -1 -0 -7 -14 -14 -0 -0 -0 -0 -0 -0 -0 -0 -0 -0 -0 -0 -0 -0 -0 -0 -0 -0 -0 -0 -0 -0 -0 -0 -0 -0 -0 -0 -0 -0 -0 -0
-13 -4 -0 -0 -30 -30 -2 -1 -0 -7 -42 -59 -0 -0 -0 -0 -0 -0 -0 -0 -0 -0 -0 -0 -0 -0 -0 -0 -0 -0 -0 -0 -0 -0 -0 -0 -0 -0 -0 -0 -0 -0 -0 -0
-0 -6 -0 -52 -23 -10 -21 -32 -24 -8 -0 -0 -0 -0 -0 -0 -24 -20 -0 -0 -0 -0 -0 -0 -0 -0 -0 -0 -0 -0 -0 -0 -0 -0 -0 -0 -0 -0 -0 -0 -0 -0 -0 -0
-0 -0 -0 -0 -0 -0 -0 -21 -0 -0 -0 -0 -0 -0 -0 -0 -36 -0 -0 -0 -0 -0 -0 -0 -0 -0 -0 -0 -0 -0 -0 -0 -0 -0 -0 -0 -0 -0 -0 -0 -0 -0 -0 -0
-0 -0 -0 -0 -0 -0 -0 -0 -0 -0 -0 -0 -0 -0 -0 -0 -37 -61 -0 -0 -0 -0 -0 -0 -0 -0 -0 -0 -0 -0 -0 -0 -0 -0 -0 -0 -0 -0 -0 -0 -0 -0 -0 -0
-0 -0 -0 -0 -0 -0 -0 -0 -0 -0 -0 -0 -0 -0 -0 -0 -27 -52 -15 -21 -0 -0 -0 -0 -0 -0 -0 -0 -0 -0 -0 -0 -0 -0 -0 -0 -0 -0 -0 -0 -0 -0 -0 -0
-0 -0 -0 -0 -0 -0 -0 -0 -0 -0 -0 -0 -0 -0 -0 -0 -67 -69 -10 -6 -0 -0 -0 -0 -0 -0 -0 -0 -0 -0 -0 -0 -0 -0 -0 -0 -0 -0 -0 -0 -0 -0 -0 -0
-0 -0 -0 -0 -0 -0 -0 -0 -0 -0 -0 -0 -0 -0 -0 -0 -14 -57 -3 -7 -0 -0 -0 -0 -0 -0 -0 -0 -0 -0 -0 -0 -0 -0 -0 -0 -0 -0 -0 -0 -0 -0 -0 -0
-0 -0 -0 -0 -0 -0 -0 -0 -0 -0 -0 -0 -0 -0 -0 -0 -12 -27 -17 -8 -0 -0 -0 -0 -0 -0 -0 -0 -0 -0 -0 -0 -0 -0 -0 -0 -0 -0 -0 -0 -0 -0 -0 -0
-0 -0 -0 -0 -0 -0 -0 -0 -0 -0 -0 -0 -0 -0 -0 -0 -0 -0 -18 -21 -0 -0 -0 -0 -0 -0 -0 -0 -0 -0 -0 -0 -0 -0 -0 -0 -0 -0 -0 -0 -0 -0 -0 -0
-0 -0 -0 -0 -0 -0 -0 -0 -0 -0 -0 -0 -0 -0 -0 -0 -0 -0 -0 -0 -0 -0 -0 -0 -0 -0 -0 -0 -0 -0 -0 -0 -0 -0 -0 -0 -0 -0 -0 -0 -0 -18 -25 -0
-0 -0 -0 -0 -0 -0 -0 -0 -0 -0 -0 -0 -0 -0 -0 -0 -0 -0 -0 -0 -0 -0 -0 -0 -0 -0 -0 -0 -0 -0 -0 -0 -0 -0 -0 -0 -0 -0 -0 -0 -0 -0 -20 -30
-0 -0 -0 -0 -0 -0 -0 -0 -0 -0 -0 -0 -0 -0 -0 -0 -0 -0 -0 -0 -0 -0 -0 -0 -0 -0 -0 -0 -0 -0 -0 -0 -0 -0 -0 -0 -0 -0 -0 -0 -0 -3 -14 -13
-0 -0 -0 -0 -0 -0 -0 -0 -0 -0 -0 -0 -0 -0 -0 -0 -0 -0 -0 -0 -0 -0 -0 -0 -0 -0 -0 -0 -0 -0 -0 -0 -0 -0 -0 -0 -0 -0 -0 -9 -7 -16 -0 -0
-0 -0 -12 -7 -0 -0 -0 -0 -0 -0 -0 -0 -0 -0 -0 -0 -0 -0 -0 -0 -0 -0 -0 -0 -0 -0 -0 -0 -0 -0 -0 -0 -0 -0 -0 -0 -0 -0 -0 -0 -0 -7 -0 -0
-4 -1 -4 -0 -0 -0 -0 -0 -0 -0 -0 -0 -0 -0 -0 -0 -0 -0 -0 -0 -0 -0 -0 -0 -0 -0 -0 -0 -0 -0 -0 -0 -0 -0 -0 -0 -5 -0 -0 -0 -9 -4 -0 -0
-3 -7 -0 -0 -0 -0 -0 -0 -0 -0 -0 -0 -0 -0 -0 -0 -0 -0 -0 -0 -0 -0 -0 -0 -0 -0 -0 -0 -0 -0 -0 -0 -0 -0 -16 -19 -7 -0 -0 -7 -2 -0 -0 -0
-5 -0 -0 -0 -0 -0 -0 -0 -0 -0 -0 -0 -0 -0 -0 -0 -0 -0 -0 -0 -0 -0 -0 -0 -0 -0 -0 -0 -0 -0 -0 -0 -0 -15 -19 -19 -16 -11 -0 -0 -0 -0 -1 -0
-0 -0 -0 -0 -0 -0 -0 -0 -0 -0 -0 -0 -0 -0 -0 -0 -0 -0 -0 -0 -0 -0 -0 -0 -0 -0 -0 -0 -0 -0 -0 -0 -1 -0 -19 -10 -0 -22 -0 -0 -0 -5 -0 -0
-0 -0 -0 -0 -0 -0 -0 -0 -0 -0 -0 -0 -0 -0 -0 -0 -0 -0 -1 -0 -0 -0 -0 -0 -0 -0 -0 -0 -0 -0 -0 -0 -0 -19 -0 -0 -0 -0 -0 -0 -0 -0 -0 -0
-0 -0 -0 -0 -0 -0 -0 -0 -0 -0 -0 -0 -0 -0 -0 -0 -0 -0 -0 -0 -0 -0 -0 -0 -0 -0 -0 -0 -0 -0 -0 -0 -0 -0 -8 -0 -0 -0 -0 -3 -1 -2 -0 -0
-0 -0 -0 -0 -0 -0 -0 -0 -0 -0 -0 -0 -0 -0 -0 -0 -0 -0 -0 -0 -0 -0 -0 -0 -0 -0 -0 -1 -1 -1 -0 -0 -11 -13 -0 -0 -0 -0 -0 -0 -1 -0 -1 -0
Wind_Speed
20 23 24 26 26 21 25 20 17 27 25 27 22 18 10 15 19 25 28 20 9 11 13 12 12 12 12 13 14 15 16 15 15 13 12 10 9 8 7 7 6 5 5 5
24 24 24 27 26 27 24 30 25 27 28 22 24 11 14 15 17 20 21 22 22 14 11 14 17 16 14 14 16 16 16 15 13 12 12 11 9 8 7 6 6 5 5 5
20 25 20 16 26 24 23 27 20 18 6 9 13 20 16 16 18 13 17 21 22 24 15 15 18 19 19 17 15 16 15 14 14 13 13 11 9 7 7 7 5 6 5 5
10 16 15 9 15 14 16 18 13 5 5 10 15 16 17 16 10 16 18 20 23 19 19 11 10 15 14 15 17 16 15 14 14 13 12 10 8 8 6 5 7 5 6 6
5 10 18 18 6 10 14 12 13 14 20 15 13 12 14 9 13 15 16 18 21 21 20 16 12 15 14 16 16 16 15 15 14 14 13 11 9 8 5 6 5 5 5 5
10 11 11 14 12 9 8 9 10 15 17 21 11 11 14 17 17 22 16 18 21 25 22 18 13 15 16 16 16 16 16 15 14 14 13 12 9 8 5 4 6 4 5 6
8 6 11 13 4 1 5 9 14 18 17 19 15 12 19 21 18 19 17 21 25 21 18 16 13 16 15 16 18 14 14 13 13 12 12 10 8 6 6 6 4 4 5 5
4 4 12 0 10 8 9 12 18 16 17 15 15 18 18 18 15 18 20 21 25 16 9 8 14 16 15 15 11 14 14 13 13 11 9 7 9 6 5 5 5 5 3 5
8 11 12 22 19 20 17 14 16 18 15 17 20 20 20 19 12 13 17 17 16 8 3 5 10 13 15 11 15 14 14 13 11 10 7 7 7 6 4 5 4 4 3 4
10 17 18 18 19 20 17 15 13 16 19 18 19 17 24 20 11 11 15 16 12 8 5 4 7 8 12 14 14 15 14 12 9 9 7 6 4 4 4 4 3 3 4 4
16 20 21 17 11 10 18 16 19 18 18 18 18 18 19 15 11 8 10 13 8 7 6 4 8 10 12 14 15 13 11 9 8 7 7 6 4 5 4 4 5 4 4 4
15 17 16 21 19 18 19 20 19 18 19 18 16 17 18 17 10 4 6 10 11 10 4 6 6 9 11 12 13 12 10 7 7 6 4 4 4 3 5 6 6 8 11 7
17 15 17 21 20 13 13 15 18 17 17 17 17 14 15 14 10 5 5 8 5 6 5 6 5 6 8 10 11 10 8 7 6 6 5 5 3 3 3 2 1 4 6 5
8 9 10 8 13 14 14 15 14 12 14 11 11 11 11 13 14 6 3 8 4 6 5 5 9 8 9 8 7 7 7 13 6 5 5 4 4 3 3 3 2 3 5 6
8 8 11 15 15 14 13 14 17 17 16 15 13 12 10 12 13 13 5 6 2 4 6 6 9 7 13 9 8 8 7 5 5 4 4 4 4 3 3 2 3 3 2 4
15 15 17 14 15 15 15 16 17 19 18 16 16 15 12 11 12 12 9 6 6 9 4 5 7 8 10 10 8 7 6 13 8 4 4 4 3 3 3 3 4 3 2 3
16 19 20 19 16 15 17 17 15 17 18 17 18 16 12 10 10 12 4 7 10 8 8 12 11 10 9 9 9 6 5 5 10 4 3 3 3 3 2 1 3 3 3 3
9 14 17 16 16 17 21 19 17 17 17 18 18 14 12 11 11 11 10 7 7 6 9 10 13 13 10 9 8 6 5 4 4 3 3 3 3 2 2 3 3 2 2 3
17 18 21 18 16 20 21 19 16 17 16 17 15 16 15 15 13 12 6 10 11 11 7 12 21 16 9 10 9 6 5 5 4 3 3 4 3 1 1 1 2 1 2 4
18 19 16 19 21 19 20 17 18 15 19 19 15 16 15 14 13 9 10 10 9 10 12 13 14 10 8 10 12 5 5 5 4 4 3 3 3 0 2 3 3 3 2 3
21 15 17 20 19 19 17 16 15 18 17 17 14 15 14 11 8 12 14 10 9 12 12 17 10 8 5 8 7 5 5 5 4 3 3 2 0 1 2 2 2 2 3 3
18 14 18 17 18 19 16 16 16 15 16 15 16 16 9 7 11 9 9 12 8 17 10 7 7 11 8 13 5 5 4 4 3 3 3 2 1 1 1 1 2 3 3 5
11 14 16 18 16 15 14 13 12 13 11 9 2 8 9 7 7 10 9 9 8 12 8 7 12 16 15 6 5 5 5 4 3 3 3 2 1 1 1 2 3 3 3 4
12 13 14 15 11 9 11 12 11 10 9 12 12 10 10 10 10 8 10 13 18 12 7 8 12 15 13 5 5 5 4 3 4 3 3 2 1 1 2 2 3 4 4 5
11 10 8 9 9 8 10 10 9 10 12 13 13 13 13 10 9 8 7 8 14 7 4 12 12 15 5 4 4 4 3 3 3 2 1 1 1 2 2 4 4 5 5 5
9 5 5 6 6 6 6 7 8 8 9 10 10 10 10 9 9 9 8 9 5 8 5 4 4 4 4 3 3 4 3 2 1 1 0 0 0 1 3 3 4 4 4 5
5 6 4 5 6 6 7 9 9 9 9 8 9 8 8 8 8 8 9 5 5 5 5 4 4 4 3 2 3 3 2 2 1 1 1 1 1 2 3 4 4 5 3 4
Wind_Direction
277 281 284 284 277 278 277 258 246 270 265 268 276 290 321 311 325 327 323 303 238 210 204 205 198 189 187 180 174 171 174 179 183 178 177 172 172 177 185 187 202 205 226 245
277 276 273 276 278 273 261 270 267 253 265 263 275 312 319 327 315 312 321 318 298 257 211 196 195 192 183 180 178 171 175 181 174 170 171 175 176 179 181 190 194 202 212 227
274 276 282 275 255 263 260 265 268 268 280 12 328 314 315 310 295 313 312 319 319 314 244 213 198 187 186 180 167 175 176 173 171 171 173 176 174 169 181 186 179 196 221 233
270 285 253 289 305 281 269 273 303 303 339 291 282 281 298 284 286 315 315 316 310 304 299 245 221 188 171 168 170 173 173 169 170 168 172 168 160 174 172 166 187 197 229 240
276 283 279 279 343 345 323 304 85 350 309 295 287 295 308 312 310 303 305 306 301 294 283 276 203 182 174 164 166 168 170 169 168 164 163 160 166 170 169 173 184 211 224 254
290 282 277 278 318 15 335 286 333 304 305 308 309 309 307 317 306 306 312 306 311 299 282 266 202 170 166 166 166 173 170 168 161 158 158 164 165 165 167 171 198 209 251 237
265 275 277 270 237 294 335 282 299 304 302 301 287 271 292 300 299 300 309 313 316 298 271 239 174 164 168 164 174 168 154 149 148 152 153 158 152 153 170 184 194 230 252 275
286 236 275 95 336 298 314 305 298 303 298 286 282 287 286 285 291 298 314 326 326 306 258 178 171 158 157 165 146 140 142 141 143 140 148 147 155 167 166 168 198 234 262 285
198 250 275 287 292 296 291 277 296 301 293 301 302 295 288 294 279 302 317 330 323 329 276 167 161 151 148 143 135 136 137 137 134 135 139 148 153 166 164 176 190 239 228 257
290 267 263 282 300 295 294 286 284 286 289 292 289 293 295 295 280 312 334 337 337 341 333 83 94 121 130 133 131 133 130 125 126 138 141 148 152 159 171 181 188 214 235 249
261 279 284 278 274 284 294 286 290 291 288 287 292 290 287 293 274 296 336 326 331 328 8 41 84 113 121 123 125 118 120 126 137 146 155 155 170 174 188 199 179 199 223 218
269 280 285 290 298 299 297 299 300 296 297 298 295 291 297 294 267 263 317 321 337 325 22 16 92 120 118 114 118 126 128 136 147 143 144 147 164 166 212 221 227 217 230 246
270 279 288 291 293 288 288 293 296 297 295 296 300 304 308 298 287 236 283 314 283 246 185 156 98 110 116 116 118 132 132 136 136 140 152 156 157 176 208 336 285 261 274 288
282 296 294 273 291 299 297 290 293 294 294 293 293 307 310 310 300 250 287 293 253 224 187 163 133 133 125 104 118 138 144 152 145 156 157 148 157 178 174 198 215 292 300 299
279 273 261 283 289 294 310 311 306 304 304 307 305 298 303 304 311 303 261 250 264 223 159 157 132 129 133 145 175 141 129 135 134 133 142 146 143 149 184 214 238 240 252 277
318 312 314 310 308 308 313 308 300 300 302 302 297 294 293 288 293 299 273 153 185 194 160 133 119 145 138 145 122 114 120 138 134 133 134 133 139 168 201 216 230 252 274 261
314 317 319 307 302 301 307 302 292 292 296 293 289 286 287 284 293 300 237 200 188 199 162 178 167 134 121 127 127 121 119 131 140 132 142 149 153 172 181 248 261 249 250 276
282 292 302 287 290 298 303 299 292 289 286 286 287 280 279 281 281 291 275 209 169 171 184 148 128 115 109 123 127 123 122 124 131 138 146 134 123 135 206 229 250 264 290 297
308 306 306 295 296 297 297 294 287 285 284 283 281 280 279 274 275 272 199 158 141 130 133 126 119 107 128 137 127 122 125 133 129 126 123 126 111 109 296 321 285 277 312 286
301 299 294 300 300 297 295 290 290 284 291 285 274 279 276 269 265 239 152 152 146 131 132 125 110 122 124 139 129 117 125 127 127 121 132 116 90 359 284 288 305 301 301 298
301 299 306 308 303 298 295 297 297 291 289 283 275 266 262 261 227 135 134 122 124 118 111 110 121 117 117 132 129 126 126 118 124 131 117 124 255 262 290 306 313 314 322 296
309 312 311 313 308 308 309 300 299 291 281 270 264 264 246 145 113 99 110 125 119 118 114 111 108 125 144 136 130 131 125 130 143 124 136 158 177 260 308 306 300 320 297 282
309 314 313 318 314 313 314 317 320 316 300 274 317 94 101 93 105 114 108 98 92 102 97 107 144 158 151 138 135 130 129 133 132 139 145 163 225 305 303 323 326 296 277 274
309 307 319 323 322 324 336 343 342 353 26 48 52 67 84 88 72 79 95 111 121 113 116 140 157 155 139 133 135 132 133 134 143 155 187 189 200 310 337 340 324 325 295 300
304 311 318 331 337 346 349 349 10 16 34 43 48 53 62 61 77 88 92 100 113 104 100 148 162 136 117 127 130 116 133 139 152 167 185 165 48 346 340 306 289 301 309 313
320 329 330 337 343 353 359 6 28 29 37 46 46 48 53 59 70 71 78 89 85 89 71 73 80 92 98 112 120 128 146 123 69 21 160 5 31 340 305 301 310 285 303 314
352 6 358 15 13 19 28 34 38 36 33 37 48 41 51 52 63 73 76 71 72 70 60 54 58 93 114 138 127 131 133 118 82 39 29 357 336 304 305 312 302 310 309 316